Tracking 18624 objects as of 27-April-2017
HD Live streaming from Space Station
objects crossing your sky now

CRRES DEB (CANISTER)

Track CRRES DEB (CANISTER) now!


NORAD ID: 27051
Int'l Code: 1990-065U
Perigee: -6,371.0 km
Apogee: -6,371.0 km
Inclination: 18.1 °
Period: 0.0 minutes
Semi major axis: 0 km
RCS: 0.1304 m2 (medium)
Launch date: July 25, 1990
Source: United States (US)
Launch site: AIR FORCE EASTERN TEST RANGE (AFETR)

Note: This is SATELLITE DEBRIS
Your satellite tracking list
Your tracking list is empty





NASA's NSSDC Master Catalog

Two Line Element Set (TLE):
1 27051U 90065U   17116.35749407 +.00001117 +00000-0 +97614-3 0  9990
2 27051 018.0602 251.9039 6910320 174.5947 201.3399 02.72755116167952
Source of the keplerian elements: AFSPC